QPF
0.00 0.00 0.00 0.01 0.01 0.02 0.02 0.01 0.01 0.01 0.01 0.02 0.02 0.02 0.02 0.01 0.01 0.01 0.02 0.04 0.06 0.07 0.09 0.08 0.06 0.04 0.03 0.01 0.01 0.01 0.01 0.01 0.00 0.00 0.00 0.00 0.00 0.00 0.00 0.00 0.00 0.00 0.00
0.01 0.01 0.02 0.03 0.04 0.04 0.04 0.03 0.03 0.03 0.05 0.04 0.04 0.05 0.04 0.03 0.03 0.03 0.04 0.05 0.07 0.08 0.12 0.12 0.10 0.08 0.05 0.04 0.03 0.02 0.01 0.01 0.00 0.00 0.00 0.00 0.00 0.00 0.00 0.01 0.01 0.01 0.00
0.02 0.02 0.02 0.03 0.05 0.05 0.05 0.05 0.05 0.06 0.07 0.06 0.06 0.07 0.06 0.07 0.06 0.05 0.06 0.07 0.08 0.11 0.11 0.11 0.12 0.11 0.10 0.08 0.06 0.04 0.03 0.02 0.02 0.02 0.01 0.01 0.01 0.01 0.01 0.02 0.02 0.01 0.01
0.05 0.04 0.04 0.04 0.06 0.05 0.04 0.05 0.07 0.08 0.07 0.06 0.07 0.08 0.07 0.07 0.06 0.06 0.06 0.09 0.11 0.10 0.09 0.11 0.12 0.14 0.14 0.13 0.11 0.10 0.07 0.06 0.04 0.04 0.03 0.02 0.02 0.03 0.02 0.02 0.02 0.02 0.02
0.06 0.06 0.06 0.07 0.08 0.07 0.07 0.07 0.07 0.07 0.07 0.06 0.07 0.08 0.08 0.06 0.07 0.07 0.07 0.08 0.10 0.10 0.10 0.12 0.16 0.16 0.16 0.15 0.15 0.15 0.14 0.13 0.10 0.07 0.05 0.05 0.05 0.04 0.03 0.03 0.02 0.02 0.02
0.09 0.10 0.13 0.15 0.14 0.14 0.13 0.12 0.11 0.09 0.08 0.08 0.08 0.08 0.08 0.07 0.07 0.07 0.08 0.08 0.09 0.10 0.11 0.11 0.12 0.13 0.16 0.16 0.17 0.20 0.22 0.21 0.18 0.14 0.10 0.10 0.08 0.06 0.04 0.03 0.03 0.02 0.01
0.21 0.22 0.25 0.23 0.20 0.18 0.17 0.17 0.14 0.11 0.09 0.08 0.07 0.06 0.06 0.04 0.04 0.05 0.07 0.08 0.10 0.12 0.12 0.11 0.12 0.12 0.14 0.17 0.19 0.23 0.25 0.26 0.24 0.21 0.16 0.12 0.09 0.06 0.05 0.03 0.03 0.02 0.02
0.34 0.33 0.31 0.28 0.26 0.24 0.22 0.18 0.15 0.11 0.10 0.10 0.09 0.08 0.05 0.03 0.03 0.04 0.06 0.08 0.10 0.11 0.11 0.10 0.10 0.10 0.11 0.14 0.16 0.21 0.24 0.26 0.28 0.28 0.24 0.20 0.15 0.11 0.07 0.05 0.04 0.03 0.03
0.39 0.42 0.42 0.38 0.33 0.28 0.22 0.17 0.16 0.14 0.12 0.12 0.12 0.10 0.07 0.04 0.03 0.02 0.03 0.05 0.06 0.07 0.07 0.08 0.08 0.09 0.11 0.13 0.16 0.22 0.25 0.28 0.32 0.33 0.27 0.20 0.15 0.12 0.08 0.05 0.04 0.03 0.03
0.35 0.35 0.37 0.34 0.28 0.22 0.18 0.16 0.14 0.12 0.09 0.09 0.10 0.09 0.08 0.07 0.05 0.04 0.03 0.04 0.04 0.04 0.05 0.06 0.07 0.08 0.10 0.11 0.14 0.18 0.21 0.24 0.27 0.27 0.23 0.18 0.14 0.11 0.09 0.07 0.05 0.04 0.03
0.31 0.30 0.28 0.24 0.21 0.20 0.18 0.14 0.12 0.10 0.09 0.07 0.06 0.06 0.06 0.06 0.06 0.06 0.05 0.05 0.05 0.05 0.05 0.06 0.08 0.08 0.09 0.11 0.14 0.20 0.22 0.21 0.21 0.20 0.17 0.15 0.13 0.11 0.09 0.07 0.05 0.04 0.03
0.27 0.25 0.24 0.20 0.17 0.15 0.13 0.11 0.10 0.11 0.11 0.09 0.06 0.06 0.05 0.05 0.05 0.06 0.08 0.07 0.07 0.07 0.07 0.06 0.07 0.08 0.10 0.13 0.17 0.23 0.20 0.19 0.19 0.18 0.16 0.13 0.10 0.08 0.07 0.06 0.05 0.05 0.04
0.27 0.27 0.24 0.19 0.15 0.13 0.12 0.10 0.09 0.07 0.06 0.04 0.03 0.03 0.03 0.03 0.03 0.04 0.04 0.04 0.05 0.05 0.06 0.06 0.07 0.08 0.10 0.13 0.17 0.21 0.16 0.16 0.14 0.13 0.12 0.11 0.10 0.09 0.09 0.08 0.06 0.06 0.05
0.26 0.23 0.17 0.12 0.09 0.08 0.06 0.05 0.04 0.03 0.03 0.02 0.02 0.02 0.01 0.01 0.01 0.02 0.03 0.04 0.05 0.05 0.05 0.06 0.07 0.08 0.10 0.12 0.17 0.19 0.13 0.14 0.13 0.12 0.11 0.10 0.09 0.07 0.07 0.06 0.05 0.04 0.04
0.18 0.14 0.09 0.05 0.03 0.03 0.02 0.02 0.02 0.01 0.01 0.01 0.01 0.01 0.01 0.01 0.01 0.01 0.01 0.01 0.02 0.04 0.05 0.05 0.07 0.08 0.10 0.11 0.15 0.10 0.08 0.12 0.11 0.10 0.09 0.08 0.07 0.06 0.05 0.05 0.04 0.03 0.03
0.06 0.04 0.03 0.02 0.01 0.01 0.01 0.01 0.00 0.00 0.00 0.00 0.00 0.00 0.00 0.01 0.01 0.01 0.01 0.01 0.01 0.03 0.05 0.06 0.07 0.08 0.09 0.10 0.13 0.09 0.08 0.10 0.08 0.07 0.07 0.07 0.06 0.06 0.05 0.04 0.04 0.03 0.02
0.03 0.02 0.01 0.01 0.01 0.01 0.00 0.00 0.00 0.00 0.00 0.00 0.00 0.00 0.01 0.01 0.01 0.02 0.02 0.02 0.02 0.02 0.04 0.06 0.06 0.07 0.08 0.09 0.09 0.09 0.08 0.07 0.06 0.06 0.05 0.05 0.04 0.03 0.03 0.02 0.02 0.01 0.01
0.01 0.01 0.01 0.01 0.01 0.01 0.01 0.00 0.00 0.00 0.00 0.00 0.00 0.01 0.01 0.01 0.01 0.01 0.02 0.02 0.02 0.02 0.03 0.04 0.04 0.04 0.05 0.05 0.05 0.05 0.06 0.05 0.04 0.04 0.03 0.03 0.02 0.02 0.01 0.01 0.00 0.00 0.00
0.01 0.01 0.01 0.01 0.00 0.00 0.00 0.00 0.00 0.00 0.00 0.00 0.00 0.00 0.00 0.00 0.00 0.00 0.00 0.00 0.00 0.01 0.01 0.01 0.02 0.02 0.03 0.03 0.03 0.03 0.03 0.02 0.02 0.02 0.02 0.02 0.01 0.01 0.00 0.00 0.00 0.00 0.00
0.00 0.00 0.00 0.00 0.00 0.00 0.00 0.00 0.00 0.00 0.00 0.00 0.00 0.00 0.00 0.00 0.00 0.00 0.00 0.00 0.00 0.00 0.00 0.01 0.01 0.02 0.02 0.02 0.02 0.02 0.02 0.02 0.01 0.01 0.01 0.01 0.00 0.00 0.00 0.00 0.00 0.00 0.00
0.00 0.00 0.00 0.00 0.00 0.00 0.00 0.00 0.00 0.00 0.00 0.00 0.00 0.00 0.00 0.00 0.00 0.00 0.00 0.00 0.00 0.00 0.00 0.00 0.00 0.01 0.01 0.01 0.01 0.01 0.01 0.01 0.00 0.00 0.00 0.00 0.00 0.00 0.00 0.00 0.00 0.00 0.00
0.00 0.00 0.00 0.00 0.00 0.00 0.00 0.00 0.00 0.00 0.00 0.00 0.00 0.00 0.00 0.00 0.00 0.00 0.00 0.00 0.00 0.00 0.00 0.00 0.00 0.00 0.00 0.00 0.00 0.00 0.00 0.00 0.00 0.00 0.00 0.00 0.00 0.00 0.00 0.00 0.00 0.00 0.00
0.00 0.00 0.00 0.00 0.00 0.00 0.00 0.00 0.00 0.00 0.00 0.00 0.00 0.00 0.00 0.00 0.00 0.00 0.00 0.00 0.00 0.00 0.00 0.00 0.00 0.00 0.00 0.00 0.00 0.00 0.00 0.00 0.00 0.00 0.00 0.00 0.00 0.00 0.00 0.00 0.00 0.00 0.00
0.00 0.00 0.00 0.00 0.00 0.00 0.00 0.00 0.00 0.00 0.00 0.00 0.00 0.00 0.00 0.00 0.00 0.00 0.00 0.00 0.00 0.00 0.00 0.00 0.00 0.00 0.00 0.00 0.00 0.00 0.00 0.00 0.00 0.00 0.00 0.00 0.00 0.00 0.00 0.00 0.00 0.00 0.00
0.00 0.00 0.00 0.00 0.00 0.00 0.00 0.00 0.00 0.00 0.00 0.00 0.00 0.00 0.00 0.00 0.00 0.00 0.00 0.00 0.00 0.00 0.00 0.00 0.00 0.00 0.00 0.00 0.00 0.00 0.00 0.01 0.00 0.00 0.00 0.00 0.00 0.00 0.00 0.00 0.00 0.00 0.00
0.00 0.00 0.00 0.00 0.00 0.00 0.00 0.00 0.00 0.00 0.00 0.00 0.00 0.00 0.00 0.00 0.00 0.00 0.00 0.00 0.00 0.00 0.00 0.00 0.00 0.00 0.00 0.01 0.01 0.01 0.00 0.00 0.00 0.00 0.00 0.00 0.00 0.00 0.00 0.00 0.00 0.00 0.00
MSLP
1016.28 1016.49 1016.64 1016.74 1016.85 1016.97 1017.12 1017.30 1017.49 1017.67 1017.80 1017.89 1017.92 1017.90 1017.85 1017.79 1017.75 1017.73 1017.74 1017.79 1017.88 1017.98 1018.11 1018.25 1018.41 1018.58 1018.77 1018.97 1019.19 1019.41 1019.64 1019.86 1020.09 1020.32 1020.54 1020.76 1020.99 1021.20 1021.40 1021.58 1021.74 1021.88 1022.01
1015.96 1016.20 1016.39 1016.55 1016.70 1016.86 1017.05 1017.25 1017.46 1017.64 1017.79 1017.88 1017.92 1017.90 1017.84 1017.75 1017.66 1017.59 1017.54 1017.53 1017.57 1017.64 1017.76 1017.91 1018.08 1018.28 1018.49 1018.71 1018.93 1019.15 1019.37 1019.59 1019.81 1020.04 1020.28 1020.52 1020.78 1021.02 1021.25 1021.45 1021.63 1021.78 1021.91
1015.58 1015.85 1016.08 1016.30 1016.51 1016.73 1016.96 1017.18 1017.40 1017.59 1017.74 1017.83 1017.87 1017.84 1017.76 1017.66 1017.53 1017.41 1017.32 1017.26 1017.25 1017.29 1017.39 1017.53 1017.71 1017.92 1018.13 1018.34 1018.55 1018.75 1018.94 1019.12 1019.33 1019.55 1019.80 1020.07 1020.35 1020.64 1020.91 1021.16 1021.37 1021.55 1021.71
1015.18 1015.48 1015.77 1016.05 1016.33 1016.60 1016.86 1017.11 1017.33 1017.52 1017.65 1017.73 1017.75 1017.72 1017.63 1017.50 1017.36 1017.21 1017.08 1016.98 1016.94 1016.95 1017.02 1017.15 1017.32 1017.50 1017.70 1017.88 1018.04 1018.19 1018.33 1018.47 1018.64 1018.84 1019.08 1019.37 1019.69 1020.03 1020.36 1020.67 1020.95 1021.19 1021.39
1014.83 1015.16 1015.50 1015.85 1016.19 1016.52 1016.81 1017.07 1017.28 1017.44 1017.55 1017.60 1017.60 1017.54 1017.45 1017.32 1017.16 1017.01 1016.86 1016.75 1016.69 1016.68 1016.73 1016.82 1016.96 1017.11 1017.25 1017.37 1017.47 1017.55 1017.62 1017.69 1017.80 1017.96 1018.20 1018.49 1018.85 1019.24 1019.64 1020.03 1020.39 1020.70 1020.98
1014.57 1014.93 1015.33 1015.74 1016.15 1016.52 1016.84 1017.10 1017.29 1017.42 1017.48 1017.49 1017.46 1017.39 1017.29 1017.16 1017.02 1016.87 1016.74 1016.63 1016.56 1016.54 1016.56 1016.62 1016.71 1016.80 1016.87 1016.92 1016.93 1016.92 1016.90 1016.90 1016.94 1017.06 1017.27 1017.57 1017.95 1018.39 1018.86 1019.32 1019.77 1020.17 1020.52
1014.45 1014.85 1015.31 1015.79 1016.25 1016.66 1017.00 1017.26 1017.42 1017.51 1017.53 1017.50 1017.43 1017.35 1017.24 1017.13 1017.01 1016.89 1016.78 1016.69 1016.62 1016.59 1016.59 1016.61 1016.64 1016.66 1016.66 1016.62 1016.54 1016.44 1016.33 1016.25 1016.23 1016.30 1016.48 1016.77 1017.17 1017.64 1018.16 1018.70 1019.21 1019.69 1020.11
1014.52 1014.96 1015.48 1016.01 1016.53 1016.98 1017.34 1017.59 1017.74 1017.79 1017.77 1017.70 1017.61 1017.50 1017.40 1017.30 1017.21 1017.12 1017.04 1016.97 1016.92 1016.88 1016.86 1016.84 1016.82 1016.77 1016.69 1016.57 1016.41 1016.23 1016.05 1015.90 1015.83 1015.86 1016.01 1016.29 1016.68 1017.17 1017.72 1018.28 1018.84 1019.36 1019.83
1014.79 1015.28 1015.85 1016.44 1017.00 1017.49 1017.87 1018.13 1018.26 1018.29 1018.24 1018.15 1018.04 1017.93 1017.83 1017.75 1017.68 1017.62 1017.57 1017.52 1017.48 1017.43 1017.39 1017.33 1017.26 1017.16 1017.02 1016.84 1016.62 1016.39 1016.16 1015.98 1015.87 1015.87 1016.00 1016.25 1016.63 1017.10 1017.63 1018.19 1018.74 1019.26 1019.73
1015.28 1015.81 1016.42 1017.05 1017.65 1018.17 1018.57 1018.84 1018.98 1019.01 1018.96 1018.85 1018.73 1018.62 1018.53 1018.46 1018.41 1018.37 1018.34 1018.30 1018.26 1018.20 1018.14 1018.06 1017.95 1017.81 1017.64 1017.42 1017.18 1016.93 1016.69 1016.50 1016.39 1016.37 1016.48 1016.70 1017.03 1017.45 1017.93 1018.44 1018.93 1019.40 1019.82
1015.96 1016.52 1017.16 1017.80 1018.42 1018.96 1019.38 1019.67 1019.83 1019.87 1019.83 1019.74 1019.63 1019.53 1019.45 1019.38 1019.34 1019.31 1019.28 1019.24 1019.19 1019.13 1019.04 1018.94 1018.81 1018.66 1018.47 1018.25 1018.02 1017.78 1017.56 1017.39 1017.28 1017.27 1017.35 1017.53 1017.81 1018.15 1018.54 1018.94 1019.34 1019.71 1020.03
1016.81 1017.38 1018.00 1018.64 1019.25 1019.78 1020.22 1020.52 1020.71 1020.78 1020.77 1020.71 1020.63 1020.55 1020.47 1020.42 1020.37 1020.33 1020.29 1020.24 1020.18 1020.10 1020.00 1019.88 1019.75 1019.59 1019.41 1019.21 1019.01 1018.80 1018.62 1018.48 1018.40 1018.39 1018.45 1018.59 1018.79 1019.03 1019.30 1019.58 1019.84 1020.08 1020.28
1017.77 1018.32 1018.90 1019.49 1020.07 1020.58 1021.00 1021.32 1021.53 1021.64 1021.67 1021.65 1021.61 1021.55 1021.49 1021.44 1021.39 1021.34 1021.28 1021.21 1021.12 1021.02 1020.91 1020.79 1020.65 1020.50 1020.34 1020.17 1020.00 1019.84 1019.70 1019.60 1019.54 1019.52 1019.56 1019.64 1019.76 1019.90 1020.04 1020.17 1020.29 1020.38 1020.45
1018.82 1019.30 1019.81 1020.32 1020.82 1021.28 1021.67 1021.98 1022.21 1022.36 1022.44 1022.47 1022.46 1022.44 1022.40 1022.35 1022.29 1022.22 1022.14 1022.04 1021.94 1021.82 1021.70 1021.56 1021.43 1021.29 1021.15 1021.01 1020.87 1020.74 1020.64 1020.55 1020.50 1020.48 1020.48 1020.50 1020.54 1020.57 1020.59 1020.59 1020.56 1020.52 1020.47
1019.89 1020.28 1020.68 1021.09 1021.50 1021.87 1022.21 1022.50 1022.74 1022.91 1023.03 1023.11 1023.14 1023.15 1023.13 1023.08 1023.02 1022.93 1022.83 1022.71 1022.58 1022.45 1022.31 1022.17 1022.04 1021.90 1021.77 1021.64 1021.52 1021.40 1021.30 1021.22 1021.15 1021.10 1021.07 1021.03 1020.98 1020.92 1020.83 1020.72 1020.59 1020.45 1020.30
1020.94 1021.23 1021.51 1021.80 1022.09 1022.37 1022.64 1022.89 1023.12 1023.30 1023.46 1023.57 1023.64 1023.68 1023.68 1023.64 1023.57 1023.47 1023.35 1023.21 1023.06 1022.91 1022.75 1022.60 1022.46 1022.32 1022.18 1022.04 1021.91 1021.78 1021.66 1021.55 1021.46 1021.36 1021.27 1021.17 1021.06 1020.92 1020.76 1020.58 1020.38 1020.17 1019.97
1021.94 1022.12 1022.28 1022.45 1022.62 1022.81 1023.01 1023.21 1023.41 1023.60 1023.77 1023.91 1024.01 1024.07 1024.08 1024.04 1023.97 1023.86 1023.72 1023.56 1023.39 1023.22 1023.05 1022.88 1022.72 1022.56 1022.40 1022.24 1022.07 1021.91 1021.75 1021.59 1021.44 1021.29 1021.15 1021.00 1020.83 1020.64 1020.44 1020.21 1019.98 1019.76 1019.54
1022.83 1022.92 1022.99 1023.06 1023.14 1023.24 1023.37 1023.53 1023.70 1023.88 1024.04 1024.19 1024.30 1024.37 1024.39 1024.35 1024.27 1024.14 1023.99 1023.81 1023.62 1023.44 1023.25 1023.06 1022.88 1022.69 1022.50 1022.30 1022.09 1021.87 1021.65 1021.44 1021.23 1021.03 1020.83 1020.63 1020.42 1020.21 1019.99 1019.76 1019.53 1019.31 1019.12
1023.60 1023.64 1023.64 1023.65 1023.66 1023.71 1023.78 1023.89 1024.03 1024.18 1024.34 1024.48 1024.59 1024.65 1024.66 1024.62 1024.52 1024.38 1024.20 1024.01 1023.80 1023.59 1023.39 1023.18 1022.97 1022.75 1022.52 1022.28 1022.03 1021.76 1021.49 1021.22 1020.96 1020.70 1020.46 1020.23 1020.00 1019.77 1019.55 1019.33 1019.12 1018.93 1018.77
1024.24 1024.25 1024.24 1024.21 1024.20 1024.21 1024.25 1024.32 1024.43 1024.55 1024.68 1024.80 1024.89 1024.93 1024.92 1024.86 1024.75 1024.58 1024.39 1024.17 1023.94 1023.71 1023.48 1023.25 1023.02 1022.78 1022.52 1022.24 1021.95 1021.65 1021.34 1021.03 1020.73 1020.44 1020.16 1019.91 1019.67 1019.44 1019.22 1019.02 1018.84 1018.68 1018.55
1024.72 1024.76 1024.76 1024.75 1024.74 1024.73 1024.76 1024.80 1024.87 1024.96 1025.05 1025.13 1025.19 1025.20 1025.17 1025.08 1024.94 1024.75 1024.53 1024.29 1024.04 1023.79 1023.54 1023.29 1023.04 1022.77 1022.50 1022.20 1021.90 1021.57 1021.25 1020.92 1020.60 1020.30 1020.01 1019.75 1019.50 1019.28 1019.07 1018.88 1018.71 1018.56 1018.44
1025.09 1025.17 1025.22 1025.24 1025.25 1025.26 1025.27 1025.29 1025.32 1025.37 1025.42 1025.45 1025.46 1025.44 1025.37 1025.25 1025.08 1024.87 1024.63 1024.36 1024.09 1023.81 1023.54 1023.27 1023.00 1022.73 1022.45 1022.15 1021.85 1021.53 1021.21 1020.89 1020.59 1020.29 1020.01 1019.75 1019.51 1019.29 1019.08 1018.88 1018.71 1018.56 1018.43
1025.38 1025.51 1025.61 1025.68 1025.72 1025.74 1025.74 1025.74 1025.73 1025.73 1025.72 1025.70 1025.67 1025.60 1025.49 1025.34 1025.15 1024.91 1024.65 1024.36 1024.07 1023.77 1023.48 1023.19 1022.91 1022.63 1022.35 1022.06 1021.78 1021.49 1021.20 1020.91 1020.63 1020.37 1020.11 1019.87 1019.64 1019.41 1019.20 1019.00 1018.80 1018.62 1018.46
1025.63 1025.82 1025.97 1026.07 1026.13 1026.15 1026.13 1026.10 1026.05 1025.99 1025.93 1025.86 1025.77 1025.67 1025.52 1025.35 1025.13 1024.88 1024.60 1024.29 1023.98 1023.66 1023.35 1023.04 1022.75 1022.46 1022.19 1021.92 1021.66 1021.40 1021.16 1020.92 1020.69 1020.46 1020.25 1020.03 1019.81 1019.59 1019.37 1019.14 1018.92 1018.70 1018.50
1025.90 1026.12 1026.30 1026.42 1026.48 1026.48 1026.44 1026.36 1026.26 1026.15 1026.04 1025.92 1025.79 1025.64 1025.48 1025.28 1025.06 1024.79 1024.50 1024.18 1023.85 1023.51 1023.18 1022.85 1022.54 1022.25 1021.97 1021.72 1021.48 1021.26 1021.06 1020.87 1020.69 1020.52 1020.34 1020.16 1019.96 1019.75 1019.52 1019.28 1019.02 1018.76 1018.51
1026.20 1026.43 1026.61 1026.72 1026.77 1026.74 1026.66 1026.53 1026.38 1026.22 1026.06 1025.90 1025.74 1025.57 1025.39 1025.19 1024.96 1024.69 1024.40 1024.07 1023.73 1023.37 1023.02 1022.67 1022.34 1022.03 1021.74 1021.49 1021.27 1021.07 1020.90 1020.76 1020.62 1020.50 1020.36 1020.22 1020.05 1019.85 1019.62 1019.37 1019.09 1018.80 1018.51
Thickness
5725 5725 5724 5724 5723 5723 5722 5722 5722 5721 5721 5721 5721 5720 5720 5719 5718 5717 5715 5714 5712 5710 5708 5706 5703 5700 5699 5697 5695 5694 5692 5691 5689 5687 5686 5684 5682 5679 5677 5675 5673 5672 5670
5724 5722 5722 5721 5721 5721 5720 5720 5719 5719 5719 5718 5718 5718 5717 5717 5716 5715 5714 5712 5711 5709 5707 5704 5702 5699 5697 5695 5694 5692 5690 5688 5686 5685 5683 5680 5678 5676 5674 5671 5669 5667 5665
5721 5721 5720 5719 5719 5719 5717 5716 5716 5716 5715 5715 5715 5715 5715 5715 5714 5713 5712 5710 5709 5707 5705 5703 5701 5698 5696 5693 5691 5689 5687 5685 5683 5682 5679 5677 5674 5672 5669 5667 5664 5662 5659
5719 5718 5717 5717 5717 5716 5715 5713 5712 5711 5711 5710 5710 5711 5711 5710 5710 5709 5709 5707 5706 5704 5702 5701 5698 5696 5694 5691 5689 5686 5684 5682 5680 5678 5676 5673 5670 5667 5664 5661 5659 5656 5653
5717 5715 5715 5714 5713 5712 5711 5711 5709 5708 5706 5706 5706 5706 5705 5705 5705 5705 5704 5704 5702 5701 5699 5698 5695 5693 5691 5688 5686 5684 5681 5679 5677 5674 5671 5668 5665 5661 5658 5655 5652 5649 5647
5714 5712 5711 5710 5709 5707 5706 5705 5703 5702 5701 5701 5701 5700 5699 5700 5699 5699 5698 5698 5697 5695 5694 5693 5691 5689 5687 5685 5682 5680 5677 5675 5672 5669 5665 5662 5658 5654 5651 5647 5644 5641 5638
5710 5708 5706 5705 5703 5702 5701 5700 5698 5696 5694 5694 5692 5691 5692 5693 5693 5692 5692 5691 5690 5689 5688 5686 5684 5683 5681 5679 5677 5675 5672 5670 5667 5663 5659 5655 5651 5646 5642 5638 5634 5631 5629
5705 5704 5702 5700 5699 5697 5695 5694 5693 5691 5689 5688 5685 5682 5681 5684 5686 5685 5684 5683 5681 5680 5680 5678 5677 5675 5673 5672 5670 5668 5667 5664 5660 5656 5652 5648 5643 5638 5632 5627 5624 5621 5618
5697 5696 5695 5693 5691 5690 5687 5686 5686 5685 5682 5681 5679 5676 5673 5674 5675 5675 5673 5672 5671 5670 5669 5669 5667 5666 5664 5662 5661 5660 5658 5655 5651 5647 5642 5637 5632 5627 5621 5617 5612 5609 5606
5686 5685 5685 5684 5683 5681 5679 5678 5677 5676 5675 5673 5671 5670 5669 5668 5665 5665 5663 5662 5660 5658 5657 5656 5655 5654 5653 5651 5650 5648 5646 5643 5639 5634 5629 5625 5619 5614 5609 5604 5599 5596 5593
5674 5674 5673 5673 5672 5670 5669 5668 5667 5666 5664 5663 5661 5660 5660 5659 5658 5656 5654 5651 5649 5646 5644 5643 5642 5641 5640 5638 5636 5634 5632 5628 5624 5619 5615 5610 5605 5600 5595 5591 5586 5583 5580
5662 5662 5662 5661 5660 5659 5657 5656 5654 5654 5652 5651 5649 5648 5647 5646 5644 5644 5643 5640 5637 5633 5631 5629 5627 5626 5624 5622 5621 5618 5615 5612 5607 5603 5599 5595 5590 5585 5581 5576 5572 5568 5565
5649 5648 5650 5650 5648 5646 5644 5643 5642 5641 5640 5639 5637 5634 5632 5630 5629 5630 5629 5626 5623 5619 5616 5614 5611 5610 5609 5606 5603 5600 5597 5594 5590 5587 5582 5578 5574 5570 5565 5561 5557 5553 5549
5636 5635 5637 5636 5634 5633 5632 5631 5630 5627 5626 5625 5623 5621 5619 5616 5615 5614 5613 5612 5610 5605 5601 5597 5595 5593 5591 5589 5586 5583 5580 5577 5574 5570 5566 5562 5558 5554 5550 5546 5542 5539 5535
5625 5623 5624 5623 5622 5621 5619 5618 5616 5614 5612 5610 5608 5606 5604 5601 5600 5599 5597 5596 5595 5591 5585 5580 5578 5576 5574 5572 5569 5566 5563 5560 5557 5554 5550 5547 5543 5539 5535 5531 5528 5525 5521
5613 5612 5612 5611 5609 5607 5606 5605 5602 5600 5598 5595 5593 5591 5589 5586 5584 5583 5581 5579 5577 5574 5568 5563 5560 5558 5557 5554 5551 5548 5546 5543 5541 5538 5535 5532 5528 5525 5522 5518 5515 5511 5508
5599 5599 5597 5596 5594 5593 5592 5591 5588 5585 5583 5580 5578 5576 5573 5570 5568 5566 5564 5562 5558 5555 5551 5545 5542 5540 5538 5536 5533 5531 5529 5526 5524 5522 5520 5517 5514 5511 5508 5506 5503 5499 5497
5586 5585 5583 5582 5580 5579 5578 5576 5573 5571 5568 5565 5562 5560 5557 5554 5551 5548 5545 5542 5539 5535 5532 5528 5524 5522 5519 5517 5515 5513 5512 5510 5508 5507 5505 5503 5501 5499 5496 5495 5492 5489 5486
5572 5571 5569 5568 5566 5564 5562 5560 5558 5556 5553 5550 5547 5544 5541 5538 5535 5531 5528 5525 5521 5518 5513 5510 5506 5503 5501 5499 5498 5497 5496 5494 5494 5494 5493 5492 5490 5488 5486 5485 5482 5479 5476
5558 5557 5555 5553 5552 5551 5549 5546 5544 5542 5539 5536 5533 5530 5526 5523 5520 5516 5513 5509 5505 5501 5497 5494 5490 5487 5485 5482 5481 5481 5481 5480 5481 5481 5481 5480 5480 5478 5477 5475 5473 5470 5467
5545 5544 5543 5541 5539 5538 5535 5533 5530 5527 5525 5522 5519 5516 5513 5510 5507 5503 5499 5495 5491 5488 5484 5480 5477 5474 5472 5470 5469 5467 5468 5468 5470 5469 5469 5471 5471 5470 5468 5467 5464 5462 5460
5532 5532 5530 5528 5526 5524 5522 5520 5517 5514 5511 5508 5505 5502 5500 5497 5494 5491 5487 5484 5481 5477 5473 5469 5466 5464 5462 5460 5459 5459 5458 5459 5462 5461 5459 5462 5462 5461 5460 5459 5457 5455 5453
5521 5519 5517 5515 5513 5511 5509 5508 5505 5502 5499 5495 5492 5490 5488 5486 5483 5480 5478 5475 5472 5468 5465 5461 5459 5457 5456 5455 5454 5454 5453 5452 5453 5454 5452 5456 5456 5456 5454 5453 5451 5449 5447
5511 5509 5506 5504 5502 5500 5498 5496 5493 5491 5488 5485 5483 5480 5478 5476 5474 5472 5470 5468 5466 5463 5460 5457 5454 5453 5452 5451 5449 5448 5447 5446 5448 5448 5447 5449 5451 5450 5450 5448 5446 5444 5442
5502 5500 5497 5495 5492 5489 5488 5486 5484 5482 5480 5478 5475 5473 5471 5469 5467 5465 5464 5462 5461 5460 5458 5455 5454 5453 5452 5451 5449 5446 5445 5446 5449 5448 5444 5444 5446 5445 5445 5444 5442 5440 5438
5493 5491 5488 5486 5484 5481 5479 5477 5476 5475 5473 5472 5471 5469 5467 5465 5464 5462 5461 5458 5458 5457 5455 5455 5454 5454 5453 5451 5450 5447 5446 5445 5445 5445 5443 5441 5442 5440 5442 5441 5439 5437 5435